[[{"header":{"parameterUnit":"m.s-1","parameterCategory":1,"la1":30.2991,"la2":30.254,"lo1":-89.0895,"lo2":-89.0444,"dy":0.0017,"dx":0.0017,"nx":28,"ny":28,"refTime":"2024-02-22T03:00:00:Z","depth":0,"parameterNumber":2,"parameterNumberName":"U-component_of_WINDS"},"data":[0,0,0,0,0,0,0,0,0,0,0,0,0,0,0,0,0,0,0,0,0,0,0,0,0,0,0,0,0,0,0,0,0,0,0,0,0,0,0,0,0,0,0,0,0,0,0,0,0,0,0,0,0,0,0,0,0,0,-1.0504,-1.0504,0,-1.0458,-1.0457,-1.0457,-1.0406,-1.0405,-1.0404,-1.0403,-1.0357,-1.0356,-1.0356,0,0,0,0,0,0,0,0,0,0,0,0,0,-1.055,-1.0549,-1.0504,-1.0504,-1.0503,-1.0458,-1.0457,-1.0457,-1.0406,-1.0405,-1.0404,-1.0403,-1.0357,-1.0356,-1.0356,0,0,0,0,0,0,0,0,0,0,0,0,0,-1.0519,-1.0549,-1.0504,-1.0472,-1.0469,-1.0458,-1.0457,-1.0457,-1.0406,-1.0405,-1.0404,-1.0403,-1.0357,-1.0356,-1.0356,-1.0373,0,0,-1.0353,-1.0353,0,0,0,0,0,0,0,0,-1.0521,-1.0518,-1.0478,-1.0474,-1.0471,-1.0436,-1.0456,-1.0429,-1.0406,-1.043,-1.0403,-1.0402,-1.0384,-1.0381,-1.0375,-1.0371,-1.0369,-1.0353,-1.0352,-1.0352,-1.0352,0,0,0,0,0,0,0,-1.0523,-1.0519,-1.0486,-1.0477,-1.0473,-1.046,-1.0455,-1.0451,-1.0414,-1.0428,-1.0424,-1.0419,-1.0382,-1.0376,-1.0373,-1.0368,-1.0353,-1.0352,-1.0352,-1.0351,-1.0375,-1.0376,0,0,0,0,0,0,-1.053,-1.0521,-1.0487,-1.0485,-1.0494,-1.0461,-1.0454,-1.0449,-1.0414,-1.0407,-1.042,-1.0417,-1.0378,-1.0374,-1.0372,-1.0389,-1.0352,-1.0351,-1.0351,-1.0374,-1.0375,-1.0377,0,0,0,0,0,0,-1.0531,-1.0528,-1.0489,-1.0502,-1.0496,-1.0461,-1.0455,-1.0448,-1.0442,-1.0408,-1.0401,-1.042,-1.0377,-1.0373,-1.0373,-1.0386,-1.0351,-1.035,-1.0373,-1.0375,-1.0376,-1.0424,0,0,0,0,0,0,-1.0533,-1.0528,-1.0534,-1.0502,-1.0496,-1.0491,-1.0456,-1.0448,-1.044,-1.0436,-1.0406,-1.04,-1.0376,-1.0374,-1.0372,-1.0385,-1.035,-1.0371,-1.0374,-1.0376,-1.0421,-1.0427,-1.0432,0,0,0,0,0,-1.0535,-1.055,-1.0535,-1.0531,-1.0502,-1.0492,-1.0488,-1.0459,-1.0442,-1.0447,-1.0426,-1.0401,-1.0386,-1.0375,-1.0372,-1.0384,-1.037,-1.0373,-1.0375,-1.0418,-1.0426,-1.0432,0,0,0,0,0,0,-1.0585,-1.0545,-1.0528,-1.0534,-1.0517,-1.0483,-1.049,-1.0468,-1.0455,-1.0452,-1.0416,-1.041,-1.0414,-1.0399,-1.0388,-1.0399,-1.0374,-1.0377,-1.0408,-1.0415,-1.042,-1.0423,-1.0349,0,0,0,0,0,-1.0596,-1.0591,-1.0557,-1.0565,-1.0557,-1.0525,-1.052,-1.0499,-1.048,-1.0472,-1.045,-1.0433,-1.0424,-1.0419,-1.0409,-1.0419,-1.0411,-1.0426,-1.0432,-1.0437,-1.0438,-1.0441,-1.0447,-1.0385,-1.0385,-1.0385,0,0,-1.062,-1.0598,-1.0597,-1.0575,-1.0559,-1.0554,-1.0519,-1.0516,-1.0512,-1.0472,-1.047,-1.0454,-1.0432,-1.0437,-1.0438,-1.0425,-1.0454,-1.044,-1.0444,-1.0443,-1.0445,-1.0451,-1.0456,-1.0387,-1.0386,-1.0386,0,0,-1.0661,-1.0645,-1.0649,-1.0634,-1.061,-1.0589,-1.059,-1.056,-1.0547,-1.0545,-1.0515,-1.051,-1.0495,-1.0481,-1.0472,-1.0507,-1.0484,-1.0505,-1.0534,-1.0538,-1.0543,-1.0547,-1.0558,-1.0563,-1.0508,-1.0508,-1.0508,0,-1.0694,-1.0685,-1.0654,-1.0652,-1.0643,-1.0606,-1.061,-1.0597,-1.0572,-1.0566,-1.0552,-1.0533,-1.0516,-1.0516,-1.0525,-1.0519,-1.0519,-1.0508,-1.0544,-1.0548,-1.0552,-1.0562,-1.0567,-1.051,-1.051,-1.051,-1.0509,0,-1.0726,-1.072,-1.0727,-1.0702,-1.0694,-1.0695,-1.0664,-1.066,-1.064,-1.062,-1.0618,-1.0597,-1.0581,-1.058,-1.0561,-1.0578,-1.057,-1.0551,-1.0525,-1.0561,-1.057,-1.0574,-1.0514,-1.0513,-1.0512,-1.0512,0,0,-1.0796,-1.0754,-1.0757,-1.0745,-1.0717,-1.0712,-1.0712,-1.0696,-1.0692,-1.0677,-1.0675,-1.0664,-1.0645,-1.0635,-1.0614,-1.0617,-1.0646,-1.0597,-1.0596,-1.0606,-1.0662,-1.0675,-1.068,-1.0631,-1.0632,-1.0632,-1.0663,0,-1.0831,-1.0826,-1.0798,-1.0803,-1.0796,-1.0762,-1.0762,-1.0744,-1.0726,-1.0718,-1.0699,-1.069,-1.0668,-1.0661,-1.0663,-1.0642,-1.0656,-1.064,-1.0628,-1.0628,-1.0633,-1.0685,-1.0699,-1.0729,-1.0666,-1.0667,-1.0668,0,-1.087,-1.0856,-1.0859,-1.083,-1.0826,-1.0826,-1.0809,-1.0803,-1.0782,-1.0769,-1.0758,-1.0734,-1.0731,-1.0709,-1.0705,-1.0694,-1.0688,-1.0677,-1.0678,-1.0674,-1.0649,-1.0682,-1.0738,-1.0742,-1.0673,-1.0673,-1.0672,0,-1.0919,-1.0901,-1.09,-1.0891,-1.0857,-1.0858,-1.0844,-1.0823,-1.0815,-1.0801,-1.0795,-1.0782,-1.0774,-1.0764,-1.0737,-1.0723,-1.0735,-1.0711,-1.0723,-1.0724,-1.0726,-1.0726,-1.0781,-1.0725,-1.0725,-1.0725,-1.0725,0,-1.0959,-1.0962,-1.0921,-1.092,-1.0923,-1.0891,-1.0895,-1.0878,-1.0859,-1.0854,-1.0825,-1.0821,-1.0787,-1.0779,-1.0759,-1.0758,-1.0755,-1.0744,-1.0738,-1.0745,-1.0746,-1.0739,-1.0736,-1.0726,-1.0726,-1.0726,-1.0726,0,-1.1014,-1.0986,-1.0983,-1.0951,-1.0943,-1.0946,-1.0919,-1.0918,-1.0898,-1.0893,-1.089,-1.0859,-1.0848,-1.0821,-1.0804,-1.079,-1.0795,-1.0785,-1.0801,-1.0797,-1.0811,-1.0809,-1.0862,-1.0867,-1.081,-1.0811,-1.0811,0,-1.104,-1.1042,-1.101,-1.1004,-1.0992,-1.0984,-1.0975,-1.0945,-1.0937,-1.0914,-1.0915,-1.0903,-1.089,-1.0876,-1.0852,-1.0839,-1.0828,-1.0847,-1.0826,-1.0833,-1.0826,-1.0826,-1.0825,-1.0851,-1.0852,-1.0853,-1.0853,0,-1.109,-1.1077,-1.1065,-1.105,-1.104,-1.1027,-1.1011,-1.1009,-1.0974,-1.0968,-1.0956,-1.0947,-1.093,-1.0917,-1.09,-1.0886,-1.0864,-1.0861,-1.0863,-1.0869,-1.0878,-1.0872,-1.0812,-1.0859,-1.0859,-1.0858,-1.0858,-1.0858,-1.113,-1.113,-1.1107,-1.1095,-1.108,-1.1066,-1.1063,-1.1042,-1.1032,-1.1015,-1.0998,-1.0989,-1.0968,-1.0943,-1.0931,-1.0923,-1.0911,-1.0915,-1.0915,-1.0916,-1.0919,-1.0881,-1.092,-1.092,-1.092,-1.092,-1.092,0,-1.1178,-1.1161,-1.1151,-1.113,-1.1121,-1.11,-1.1082,-1.1076,-1.1068,-1.105,-1.1039,-1.1026,-1.1014,-1.099,-1.0975,-1.0974,-1.0963,-1.0971,-1.097,-1.0967,-1.0931,-1.093,-1.098,-1.098,-1.098,-1.098,-1.098,-1.098,-1.1201,-1.1198,-1.1181,-1.1171,-1.1154,-1.1144,-1.1135,-1.1122,-1.1108,-1.1095,-1.1084,-1.1068,-1.1048,-1.1032,-1.102,-1.1013,-1.1009,-1.1019,-1.1009,-1.0975,-1.097,-1.0964,-1.0963,-1.1019,-1.1019,-1.1045,-1.1046,-1.1046]},{"header":{"parameterUnit":"m.s-1","parameterCategory":1,"la1":30.2991,"la2":30.254,"lo1":-89.0895,"lo2":-89.0444,"dy":0.0017,"dx":0.0017,"nx":28,"ny":28,"refTime":"2024-02-22T03:00:00:Z","depth":0,"parameterNumber":3,"parameterNumberName":"V-component_of_WINDS"},"data":[0,0,0,0,0,0,0,0,0,0,0,0,0,0,0,0,0,0,0,0,0,0,0,0,0,0,0,0,0,0,0,0,0,0,0,0,0,0,0,0,0,0,0,0,0,0,0,0,0,0,0,0,0,0,0,0,0,0,2.9887,2.9886,0,2.983,2.9829,2.9828,2.9865,2.9867,2.9868,2.987,2.9807,2.9804,2.9801,0,0,0,0,0,0,0,0,0,0,0,0,0,3.0026,3.0024,2.9887,2.9886,2.9886,2.983,2.9829,2.9828,2.9865,2.9867,2.9869,2.9871,2.9808,2.9804,2.9801,0,0,0,0,0,0,0,0,0,0,0,0,0,2.9967,3.0023,2.9887,2.9897,2.9898,2.983,2.9829,2.9828,2.9864,2.9867,2.9869,2.9872,2.981,2.9805,2.98,2.9718,0,0,2.9785,2.9783,0,0,0,0,0,0,0,0,2.997,2.9962,2.9896,2.9896,2.9897,2.9857,2.9855,2.9791,2.9864,2.9877,2.987,2.9873,2.9822,2.9816,2.9799,2.9715,2.9712,2.9785,2.9782,2.9779,2.9778,0,0,0,0,0,0,0,2.9974,2.9965,2.9864,2.9895,2.9896,2.9904,2.9898,2.9843,2.9835,2.9876,2.9878,2.9871,2.9822,2.9804,2.9798,2.9712,2.9785,2.978,2.9777,2.9775,2.9561,2.9558,0,0,0,0,0,0,2.9978,2.9968,2.9866,2.9863,2.9941,2.9899,2.9893,2.9867,2.9836,2.9834,2.9869,2.9873,2.9811,2.9804,2.9796,2.97,2.9779,2.9775,2.9772,2.9563,2.956,2.9557,0,0,0,0,0,0,2.9981,2.9969,2.9868,2.9916,2.9904,2.9894,2.9865,2.9865,2.9847,2.9831,2.9829,2.9852,2.9813,2.9803,2.9738,2.9699,2.9773,2.9768,2.9567,2.9562,2.9559,2.9507,0,0,0,0,0,0,2.9985,2.997,2.9938,2.9915,2.9901,2.9812,2.9862,2.9862,2.9839,2.9843,2.9815,2.9812,2.9814,2.9745,2.9733,2.9693,2.9764,2.957,2.9565,2.956,2.9512,2.9501,2.9492,0,0,0,0,0,2.999,2.9924,2.9937,2.9924,2.9862,2.9809,2.9801,2.9806,2.9835,2.9804,2.9795,2.9813,2.9705,2.9738,2.9725,2.9683,2.9573,2.9566,2.956,2.9516,2.9504,2.9493,0,0,0,0,0,0,2.9941,2.9921,2.9935,2.986,2.9837,2.9816,2.9776,2.9792,2.9758,2.9763,2.9769,2.9763,2.9696,2.9683,2.972,2.9604,2.9643,2.9634,2.9615,2.9602,2.9592,2.9597,2.976,0,0,0,0,0,2.9922,2.9882,2.9866,2.9802,2.979,2.9785,2.9762,2.9768,2.9743,2.9733,2.9718,2.9693,2.9654,2.9627,2.9589,2.9511,2.9506,2.9475,2.9465,2.9457,2.9449,2.9409,2.9396,2.9537,2.9537,2.9537,0,0,2.9881,2.9866,2.984,2.9792,2.9774,2.9733,2.9776,2.9729,2.9698,2.9725,2.9664,2.9653,2.9625,2.9554,2.9521,2.9541,2.941,2.9449,2.9443,2.9439,2.9402,2.9388,2.9377,2.9533,2.9533,2.9534,0,0,2.9787,2.977,2.9717,2.9699,2.9673,2.9671,2.9658,2.9635,2.963,2.9569,2.9589,2.9552,2.9483,2.9464,2.9444,2.9346,2.9363,2.9333,2.9282,2.9243,2.9232,2.9222,2.9189,2.9176,2.9325,2.9325,2.9325,0,2.9739,2.9678,2.9686,2.9639,2.9618,2.9643,2.9589,2.9571,2.9533,2.9518,2.9541,2.9458,2.944,2.9366,2.9342,2.9325,2.9311,2.9336,2.9233,2.9223,2.9214,2.9182,2.917,2.9322,2.9322,2.9323,2.9323,0,2.9622,2.9579,2.9539,2.9505,2.9479,2.9428,2.9429,2.9402,2.9411,2.9407,2.9346,2.9326,2.9287,2.927,2.9276,2.9197,2.921,2.9232,2.9273,2.9197,2.9168,2.9155,2.9317,2.9319,2.932,2.932,0,0,2.9493,2.9467,2.9452,2.9438,2.9413,2.938,2.9331,2.9294,2.9272,2.9245,2.9205,2.9148,2.917,2.9148,2.9153,2.9119,2.9045,2.9146,2.9146,2.9129,2.8959,2.8943,2.8928,2.9056,2.9054,2.9052,2.8962,0,2.9399,2.9315,2.9323,2.9243,2.9205,2.923,2.9188,2.9167,2.9162,2.9129,2.9123,2.9084,2.9114,2.9102,2.9069,2.9061,2.9011,2.9067,2.9019,2.9017,2.9026,2.8913,2.8895,2.881,2.895,2.8948,2.8946,0,2.9276,2.9249,2.9167,2.915,2.9134,2.9096,2.9065,2.9032,2.901,2.901,2.8987,2.8999,2.895,2.8992,2.8926,2.8964,2.8945,2.8938,2.8935,2.8931,2.8978,2.8907,2.8783,2.8771,2.8928,2.8929,2.8931,0,2.9193,2.9135,2.9079,2.9066,2.9045,2.9018,2.9008,2.8989,2.8967,2.8939,2.8926,2.8892,2.8873,2.8847,2.885,2.8879,2.8783,2.8824,2.8781,2.8781,2.876,2.8761,2.8633,2.8746,2.8746,2.8746,2.8746,0,2.9087,2.9036,2.9042,2.9008,2.8952,2.8961,2.8906,2.8898,2.8882,2.8846,2.8865,2.8831,2.8837,2.8803,2.8804,2.8751,2.8741,2.874,2.8741,2.8739,2.8739,2.8726,2.8733,2.8743,2.8744,2.8744,2.8745,0,2.8984,2.8986,2.8928,2.8913,2.8909,2.8868,2.8856,2.8824,2.8822,2.8777,2.8767,2.8763,2.8725,2.8725,2.8681,2.8682,2.8617,2.8624,2.8624,2.8626,2.8584,2.8589,2.8444,2.8426,2.8549,2.8548,2.8547,0,2.8917,2.8879,2.8862,2.8841,2.883,2.8794,2.8774,2.8782,2.8759,2.8734,2.8704,2.8669,2.864,2.8578,2.8571,2.8538,2.8545,2.8497,2.854,2.854,2.8546,2.8549,2.8546,2.8488,2.8487,2.8486,2.8485,0,2.8798,2.8802,2.8772,2.8743,2.8718,2.8695,2.8674,2.8655,2.8662,2.8635,2.8598,2.8576,2.8533,2.8497,2.8466,2.8455,2.8471,2.8471,2.846,2.8457,2.846,2.846,2.8603,2.8474,2.8475,2.8476,2.8477,2.8477,2.8712,2.8681,2.8665,2.8631,2.8617,2.8598,2.8568,2.8564,2.8533,2.8499,2.8506,2.8464,2.8445,2.8406,2.8392,2.8359,2.8376,2.8359,2.8355,2.8351,2.8348,2.8465,2.8353,2.8354,2.8354,2.8354,2.8354,0,2.8596,2.8588,2.8557,2.8529,2.8503,2.8522,2.8501,2.8478,2.8441,2.8423,2.8396,2.8354,2.8321,2.8312,2.828,2.8256,2.8262,2.8247,2.8249,2.8247,2.8333,2.8347,2.8242,2.8242,2.8242,2.8242,2.8242,2.8242,2.8532,2.8481,2.8483,2.8425,2.8417,2.8378,2.8365,2.8347,2.8333,2.8286,2.8259,2.8255,2.8241,2.8208,2.8179,2.8177,2.8165,2.8147,2.8148,2.8229,2.824,2.8251,2.8264,2.8144,2.8144,2.8065,2.8064,2.8063]}]]